Limnos, Greece

5:26 PM EEST on June 27, 2017 (GMT +0300)
Limnos

Weather History for LGLM - March, 2013

Change the Weather History Date:

Monday, March 18, 2013

  Actual Average Record
Temperature  
Mean Temperature 42 °F -  
Max Temperature 53 °F 60 °F 68 °F (2014)
Min Temperature 31 °F 46 °F 31 °F (2013)
Degree Days  
Heating Degree Days 24    
Moisture  
Dew Point 36 °F    
Average Humidity 75    
Maximum Humidity 94    
Minimum Humidity 41    
Precipitation  
Precipitation 0.04 in 0.05 in - ()
Sea Level Pressure  
Sea Level Pressure 30.10 in    
Wind  
Wind Speed 4 mph ()    
Max Wind Speed 16 mph    
Max Gust Speed -    
Visibility 6.2 miles    
Events Rain    
Averages and records for this station are not official NWS values.
T = Trace of Precipitation, MM = Missing Value Source: Averaged Metar Reports

Daily Weather History Graph

Daily Weather History Graph

Search for Another Location

Airport or City:

Trip Planner

Search our weather history database for the weather conditions in past years. The results will help you decide how hot, cold, wet, or windy it might be!

Date:

Astronomy

Mar. 18, 2013 Rise Set
Actual Time 6:25 AM EET 6:29 PM EET
Civil Twilight 5:58 AM EET 6:56 PM EET
Nautical Twilight 5:27 AM EET 7:27 PM EET
Astronomical Twilight 4:55 AM EET 7:59 PM EET
Moon 10:10 AM EET (3/18) 12:12 AM EET (3/18)
Length of Visible Light 12h 57m
Length of Day
12h 03m
Waxing Crescent, 38% of the Moon is Illuminated
Mar 18
Waxing Crescent
Mar 19
First Quarter
Mar 27
Full
Apr 3
Last Quarter
Apr 10
New

Hourly Weather History & Observations

Time (EET) Temp. Windchill Dew Point Humidity Pressure Visibility Wind Dir Wind Speed Gust Speed Precip Events Conditions
12:20 AM 33.8 °F - 30.2 °F 87% 30.21 in - Calm Calm - N/A   Unknown
12:50 AM 33.8 °F - 30.2 °F 87% 30.21 in - Calm Calm - N/A   Unknown
1:20 AM 32.0 °F - 30.2 °F 93% 30.21 in - Variable 2.3 mph - N/A   Unknown
1:50 AM 33.8 °F - 30.2 °F 87% 30.21 in 6.2 mi Calm Calm - N/A   Partly Cloudy
2:00 AM 33 °F - 30 °F 85% 30.22 in 6 mi Calm Calm - -   Scattered Clouds
2:20 AM 32.0 °F - 30.2 °F 93% 30.21 in - Variable 1.2 mph - N/A   Unknown
2:50 AM 32.0 °F - 30.2 °F 93% 30.21 in - Variable 2.3 mph - N/A   Unknown
3:20 AM 33.8 °F - 30.2 °F 87% 30.21 in - Variable 1.2 mph - N/A   Unknown
3:50 AM 32.0 °F - 30.2 °F 93% 30.18 in - Calm Calm - N/A   Unknown
4:20 AM 32.0 °F - 30.2 °F 93% 30.18 in - Variable 1.2 mph - N/A   Unknown
4:50 AM 32.0 °F 28.7 °F 28.4 °F 87% 30.18 in - Variable 3.5 mph - N/A   Unknown
5:20 AM 32.0 °F 28.7 °F 30.2 °F 93% 30.18 in - Variable 3.5 mph - N/A   Unknown
5:50 AM 32.0 °F - 28.4 °F 87% 30.18 in 6.2 mi Calm Calm - N/A   Partly Cloudy
6:20 AM 35.6 °F - 32.0 °F 87% 30.18 in 6.2 mi Calm Calm - N/A   Partly Cloudy
6:50 AM 33.8 °F - 30.2 °F 87% 30.18 in 6.2 mi Calm Calm - N/A   Partly Cloudy
7:20 AM 35.6 °F - 32.0 °F 87% 30.18 in 6.2 mi Calm Calm - N/A   Partly Cloudy
7:50 AM 37.4 °F - 33.8 °F 87% 30.18 in 6.2 mi Calm Calm - N/A   Partly Cloudy
8:00 AM 37 °F - 34 °F 85% 30.19 in 6 mi Calm Calm - -   Scattered Clouds
8:20 AM 44.6 °F 40.7 °F 37.4 °F 76% 30.15 in 6.2 mi East 6.9 mph - N/A   Partly Cloudy
8:50 AM 48.2 °F - 33.8 °F 58% 30.18 in 6.2 mi ESE 8.1 mph - N/A   Partly Cloudy
9:20 AM 48.2 °F - 32.0 °F 54% 30.18 in 6.2 mi East 8.1 mph - N/A   Partly Cloudy
9:50 AM 50.0 °F - 32.0 °F 50% 30.15 in 6.2 mi East 8.1 mph - N/A   Partly Cloudy
10:20 AM 51.8 °F - 30.2 °F 44% 30.15 in 6.2 mi East 5.8 mph - N/A   Partly Cloudy
10:50 AM 51.8 °F - 32.0 °F 47% 30.15 in 6.2 mi SSE 5.8 mph - N/A   Partly Cloudy
11:20 AM 51.8 °F - 32.0 °F 47% 30.15 in 6.2 mi SSE 5.8 mph - N/A   Partly Cloudy
11:50 AM 51.8 °F - 35.6 °F 54% 30.15 in 6.2 mi South 9.2 mph - N/A   Partly Cloudy
12:20 PM 53.6 °F - 35.6 °F 51% 30.15 in 6.2 mi South 9.2 mph - N/A   Partly Cloudy
12:50 PM 51.8 °F - 33.8 °F 50% 30.12 in 6.2 mi SSE 9.2 mph - N/A   Partly Cloudy
1:20 PM 53.6 °F - 33.8 °F 47% 30.12 in 6.2 mi SSE 9.2 mph - N/A   Scattered Clouds
1:50 PM 51.8 °F - 35.6 °F 54% 30.09 in 6.2 mi South 6.9 mph - N/A   Mostly Cloudy
2:00 PM 52 °F - 35 °F 41% 30.11 in 6 mi South 6.9 mph - -   Scattered Clouds
2:20 PM 51.8 °F - 37.4 °F 58% 30.09 in 6.2 mi South 6.9 mph - N/A   Mostly Cloudy
2:50 PM 51.8 °F - 37.4 °F 58% 30.06 in 6.2 mi South 5.8 mph - N/A   Mostly Cloudy
3:20 PM 50.0 °F - 37.4 °F 62% 30.06 in 6.2 mi South 5.8 mph - N/A   Mostly Cloudy
3:50 PM 51.8 °F - 39.2 °F 62% 30.04 in 6.2 mi SSE 8.1 mph - N/A   Mostly Cloudy
4:20 PM 50.0 °F - 41.0 °F 71% 30.04 in 6.2 mi South 9.2 mph - N/A   Mostly Cloudy
4:50 PM 50.0 °F - 41.0 °F 71% 30.04 in 6.2 mi South 8.1 mph - N/A Rain Light Rain
5:20 PM 50.0 °F - 41.0 °F 71% 30.04 in 6.2 mi South 8.1 mph - N/A Rain Light Rain
5:50 PM 48.2 °F - 41.0 °F 76% 30.04 in 6.2 mi SSW 8.1 mph - N/A Rain Light Rain
6:20 PM 48.2 °F - 41.0 °F 76% 30.04 in 6.2 mi SSW 8.1 mph - N/A Rain Light Rain
6:50 PM 48.2 °F - 41.0 °F 76% 30.01 in 6.2 mi South 10.4 mph - N/A Rain Light Rain
7:20 PM 48.2 °F - 42.8 °F 82% 30.01 in 6.2 mi SE 10.4 mph - N/A Rain Light Rain
7:50 PM 48.2 °F - 42.8 °F 82% 30.01 in 6.2 mi SE 6.9 mph - N/A Rain Light Rain
8:00 PM 47 °F - 43 °F 80% 30.02 in 6 mi SE 6.9 mph - - Rain Light Rain
8:20 PM 46.4 °F 42.4 °F 44.6 °F 93% 29.98 in - SE 8.1 mph - N/A Rain Light Rain
8:50 PM 48.2 °F - 46.4 °F 93% 29.98 in - ESE 8.1 mph - N/A Rain Light Rain
9:20 PM 50.0 °F - 46.4 °F 87% 29.95 in - South 13.8 mph - N/A Rain Light Rain
9:50 PM 50.0 °F - 48.2 °F 94% 29.95 in - South 16.1 mph - N/A   Unknown
10:20 PM 50.0 °F - 48.2 °F 94% 29.95 in - SW 10.4 mph - N/A   Unknown
10:50 PM 50.0 °F - 48.2 °F 94% 29.95 in - SW 6.9 mph - N/A   Unknown
11:20 PM 51.8 °F - 48.2 °F 88% 29.92 in - South 12.7 mph - N/A Rain Light Rain
11:50 PM 53.6 °F - 48.2 °F 82% 29.92 in - SSW 16.1 mph - N/A   Unknown